owner,sensor,date,latitude,longitude,vertical_datum,mass_concentration_of_oxygen_in_sea_water,qcFlag 
TCOON,ioos:station:TCOON:127:1,2017-10-01T00:30:00Z,28.2598,-96.7737,1.0,7.58,1111122 
TCOON,ioos:station:TCOON:127:1,2017-10-01T01:30:00Z,28.2598,-96.7737,1.0,7.65,1111122 
TCOON,ioos:station:TCOON:127:1,2017-10-01T02:30:00Z,28.2598,-96.7737,1.0,7.59,1111122 
TCOON,ioos:station:TCOON:127:1,2017-10-01T04:30:00Z,28.2598,-96.7737,1.0,7.34,1111122 
TCOON,ioos:station:TCOON:127:1,2017-10-01T05:30:00Z,28.2598,-96.7737,1.0,7.13,1111122 
TCOON,ioos:station:TCOON:127:1,2017-10-01T06:30:00Z,28.2598,-96.7737,1.0,7.05,1111122 
TCOON,ioos:station:TCOON:127:1,2017-10-01T07:30:00Z,28.2598,-96.7737,1.0,6.95,1111122 
TCOON,ioos:station:TCOON:127:1,2017-10-01T09:30:00Z,28.2598,-96.7737,1.0,6.92,1111122 
TCOON,ioos:station:TCOON:127:1,2017-10-01T10:30:00Z,28.2598,-96.7737,1.0,6.88,1111122 
TCOON,ioos:station:TCOON:127:1,2017-10-01T11:30:00Z,28.2598,-96.7737,1.0,6.79,1111122 
TCOON,ioos:station:TCOON:127:1,2017-10-01T12:30:00Z,28.2598,-96.7737,1.0,6.69,1111122 
TCOON,ioos:station:TCOON:127:1,2017-10-01T13:30:00Z,28.2598,-96.7737,1.0,6.76,1111122 
TCOON,ioos:station:TCOON:127:1,2017-10-01T14:30:00Z,28.2598,-96.7737,1.0,6.75,1111122 
TCOON,ioos:station:TCOON:127:1,2017-10-01T15:30:00Z,28.2598,-96.7737,1.0,7.08,1111122 
TCOON,ioos:station:TCOON:127:1,2017-10-01T16:30:00Z,28.2598,-96.7737,1.0,7.0,1111122 
TCOON,ioos:station:TCOON:127:1,2017-10-01T17:30:00Z,28.2598,-96.7737,1.0,7.49,1111122 
TCOON,ioos:station:TCOON:127:1,2017-10-01T18:30:00Z,28.2598,-96.7737,1.0,7.55,1111122 
TCOON,ioos:station:TCOON:127:1,2017-10-01T19:30:00Z,28.2598,-96.7737,1.0,7.3,1111122 
TCOON,ioos:station:TCOON:127:1,2017-10-01T20:30:00Z,28.2598,-96.7737,1.0,7.39,1111122 
TCOON,ioos:station:TCOON:127:1,2017-10-01T21:30:00Z,28.2598,-96.7737,1.0,7.96,1111122 
TCOON,ioos:station:TCOON:127:1,2017-10-01T22:30:00Z,28.2598,-96.7737,1.0,8.27,1111122 
TCOON,ioos:station:TCOON:127:1,2017-10-01T23:30:00Z,28.2598,-96.7737,1.0,8.52,1111122 
TCOON,ioos:station:TCOON:127:1,2017-10-02T00:30:00Z,28.2598,-96.7737,1.0,8.33,1111122 
TCOON,ioos:station:TCOON:127:1,2017-10-02T01:30:00Z,28.2598,-96.7737,1.0,8.0,1111122 
TCOON,ioos:station:TCOON:127:1,2017-10-02T02:30:00Z,28.2598,-96.7737,1.0,7.85,1111122 
TCOON,ioos:station:TCOON:127:1,2017-10-02T03:30:00Z,28.2598,-96.7737,1.0,7.61,1111122 
TCOON,ioos:station:TCOON:127:1,2017-10-02T04:30:00Z,28.2598,-96.7737,1.0,7.49,1111122 
TCOON,ioos:station:TCOON:127:1,2017-10-02T05:30:00Z,28.2598,-96.7737,1.0,7.36,1111122 
TCOON,ioos:station:TCOON:127:1,2017-10-02T07:00:00Z,28.2598,-96.7737,1.0,7.17,1111122 
TCOON,ioos:station:TCOON:127:1,2017-10-02T07:30:00Z,28.2598,-96.7737,1.0,7.12,1111122 
TCOON,ioos:station:TCOON:127:1,2017-10-02T08:30:00Z,28.2598,-96.7737,1.0,7.1,1111122 
TCOON,ioos:station:TCOON:127:1,2017-10-02T09:30:00Z,28.2598,-96.7737,1.0,6.92,1111122 
TCOON,ioos:station:TCOON:127:1,2017-10-02T10:30:00Z,28.2598,-96.7737,1.0,6.7,1111122 
TCOON,ioos:station:TCOON:127:1,2017-10-02T11:30:00Z,28.2598,-96.7737,1.0,6.76,1111122 
TCOON,ioos:station:TCOON:127:1,2017-10-02T12:30:00Z,28.2598,-96.7737,1.0,6.69,1111122 
TCOON,ioos:station:TCOON:127:1,2017-10-02T13:30:00Z,28.2598,-96.7737,1.0,6.72,1111122 
TCOON,ioos:station:TCOON:127:1,2017-10-02T14:30:00Z,28.2598,-96.7737,1.0,6.77,1111122 
TCOON,ioos:station:TCOON:127:1,2017-10-02T15:30:00Z,28.2598,-96.7737,1.0,6.78,1111122 
TCOON,ioos:station:TCOON:127:1,2017-10-02T16:30:00Z,28.2598,-96.7737,1.0,6.83,1111122 
TCOON,ioos:station:TCOON:127:1,2017-10-02T17:30:00Z,28.2598,-96.7737,1.0,7.28,1111122 
TCOON,ioos:station:TCOON:127:1,2017-10-02T18:30:00Z,28.2598,-96.7737,1.0,7.34,1111122 
TCOON,ioos:station:TCOON:127:1,2017-10-02T19:30:00Z,28.2598,-96.7737,1.0,7.37,1111122 
TCOON,ioos:station:TCOON:127:1,2017-10-02T20:30:00Z,28.2598,-96.7737,1.0,7.89,1111122 
TCOON,ioos:station:TCOON:127:1,2017-10-02T21:30:00Z,28.2598,-96.7737,1.0,7.88,1111122 
TCOON,ioos:station:TCOON:127:1,2017-10-02T22:30:00Z,28.2598,-96.7737,1.0,7.79,1111122 
TCOON,ioos:station:TCOON:127:1,2017-10-02T23:30:00Z,28.2598,-96.7737,1.0,7.76,1111122 
TCOON,ioos:station:TCOON:127:1,2017-10-03T00:30:00Z,28.2598,-96.7737,1.0,7.81,1111122 
TCOON,ioos:station:TCOON:127:1,2017-10-03T01:30:00Z,28.2598,-96.7737,1.0,7.5,1111122 
TCOON,ioos:station:TCOON:127:1,2017-10-03T02:30:00Z,28.2598,-96.7737,1.0,7.32,1111122 
TCOON,ioos:station:TCOON:127:1,2017-10-03T03:30:00Z,28.2598,-96.7737,1.0,7.35,1111122 
TCOON,ioos:station:TCOON:127:1,2017-10-03T04:30:00Z,28.2598,-96.7737,1.0,7.09,1111122 
TCOON,ioos:station:TCOON:127:1,2017-10-03T05:30:00Z,28.2598,-96.7737,1.0,6.99,1111122 
TCOON,ioos:station:TCOON:127:1,2017-10-03T06:30:00Z,28.2598,-96.7737,1.0,6.76,1111122 
TCOON,ioos:station:TCOON:127:1,2017-10-03T07:30:00Z,28.2598,-96.7737,1.0,6.71,1111122 
TCOON,ioos:station:TCOON:127:1,2017-10-03T08:30:00Z,28.2598,-96.7737,1.0,6.68,1111122 
TCOON,ioos:station:TCOON:127:1,2017-10-03T09:30:00Z,28.2598,-96.7737,1.0,6.46,1111122 
TCOON,ioos:station:TCOON:127:1,2017-10-03T11:30:00Z,28.2598,-96.7737,1.0,6.34,1111122 
TCOON,ioos:station:TCOON:127:1,2017-10-03T12:30:00Z,28.2598,-96.7737,1.0,6.24,1111122 
TCOON,ioos:station:TCOON:127:1,2017-10-03T13:30:00Z,28.2598,-96.7737,1.0,6.19,1111122 
TCOON,ioos:station:TCOON:127:1,2017-10-03T14:30:00Z,28.2598,-96.7737,1.0,6.06,1111122 
TCOON,ioos:station:TCOON:127:1,2017-10-03T15:30:00Z,28.2598,-96.7737,1.0,6.19,1111122 
TCOON,ioos:station:TCOON:127:1,2017-10-03T16:30:00Z,28.2598,-96.7737,1.0,6.45,1111122 
TCOON,ioos:station:TCOON:127:1,2017-10-03T17:30:00Z,28.2598,-96.7737,1.0,6.74,1111122 
TCOON,ioos:station:TCOON:127:1,2017-10-03T18:30:00Z,28.2598,-96.7737,1.0,6.92,1111122 
TCOON,ioos:station:TCOON:127:1,2017-10-03T19:30:00Z,28.2598,-96.7737,1.0,7.08,1111122 
TCOON,ioos:station:TCOON:127:1,2017-10-03T20:30:00Z,28.2598,-96.7737,1.0,7.06,1111122 
TCOON,ioos:station:TCOON:127:1,2017-10-03T21:30:00Z,28.2598,-96.7737,1.0,6.75,1111122 
TCOON,ioos:station:TCOON:127:1,2017-10-03T22:30:00Z,28.2598,-96.7737,1.0,6.86,1111122 
TCOON,ioos:station:TCOON:127:1,2017-10-03T23:30:00Z,28.2598,-96.7737,1.0,7.11,1111122 
TCOON,ioos:station:TCOON:127:1,2017-10-04T00:30:00Z,28.2598,-96.7737,1.0,7.02,1111122 
TCOON,ioos:station:TCOON:127:1,2017-10-04T01:30:00Z,28.2598,-96.7737,1.0,6.88,1111122 
TCOON,ioos:station:TCOON:127:1,2017-10-04T02:30:00Z,28.2598,-96.7737,1.0,6.78,1111122 
TCOON,ioos:station:TCOON:127:1,2017-10-04T03:30:00Z,28.2598,-96.7737,1.0,6.49,1111122 
TCOON,ioos:station:TCOON:127:1,2017-10-04T04:30:00Z,28.2598,-96.7737,1.0,6.38,1111122 
TCOON,ioos:station:TCOON:127:1,2017-10-04T05:30:00Z,28.2598,-96.7737,1.0,6.28,1111122 
TCOON,ioos:station:TCOON:127:1,2017-10-04T06:30:00Z,28.2598,-96.7737,1.0,6.34,1111122 
TCOON,ioos:station:TCOON:127:1,2017-10-04T07:30:00Z,28.2598,-96.7737,1.0,6.33,1111122 
TCOON,ioos:station:TCOON:127:1,2017-10-04T08:30:00Z,28.2598,-96.7737,1.0,6.29,1111122 
TCOON,ioos:station:TCOON:127:1,2017-10-04T09:30:00Z,28.2598,-96.7737,1.0,6.3,1111122 
TCOON,ioos:station:TCOON:127:1,2017-10-04T11:30:00Z,28.2598,-96.7737,1.0,6.31,1111122 
TCOON,ioos:station:TCOON:127:1,2017-10-04T12:30:00Z,28.2598,-96.7737,1.0,6.37,1111122 
TCOON,ioos:station:TCOON:127:1,2017-10-04T13:30:00Z,28.2598,-96.7737,1.0,6.34,1111122 
TCOON,ioos:station:TCOON:127:1,2017-10-04T14:30:00Z,28.2598,-96.7737,1.0,6.34,1111122 
TCOON,ioos:station:TCOON:127:1,2017-10-04T15:30:00Z,28.2598,-96.7737,1.0,6.49,1111122 
TCOON,ioos:station:TCOON:127:1,2017-10-04T16:30:00Z,28.2598,-96.7737,1.0,6.53,1111122 
TCOON,ioos:station:TCOON:127:1,2017-10-04T17:30:00Z,28.2598,-96.7737,1.0,6.58,1111122 
TCOON,ioos:station:TCOON:127:1,2017-10-04T18:30:00Z,28.2598,-96.7737,1.0,6.79,1111122 
TCOON,ioos:station:TCOON:127:1,2017-10-04T19:30:00Z,28.2598,-96.7737,1.0,6.82,1111122 
TCOON,ioos:station:TCOON:127:1,2017-10-04T20:30:00Z,28.2598,-96.7737,1.0,6.93,1111122 
TCOON,ioos:station:TCOON:127:1,2017-10-04T21:30:00Z,28.2598,-96.7737,1.0,7.07,1111122 
TCOON,ioos:station:TCOON:127:1,2017-10-04T22:30:00Z,28.2598,-96.7737,1.0,7.02,1111122 
TCOON,ioos:station:TCOON:127:1,2017-10-04T23:30:00Z,28.2598,-96.7737,1.0,7.09,1111122 
TCOON,ioos:station:TCOON:127:1,2017-10-05T00:30:00Z,28.2598,-96.7737,1.0,7.06,1111122 
TCOON,ioos:station:TCOON:127:1,2017-10-05T01:30:00Z,28.2598,-96.7737,1.0,6.98,1111122 
TCOON,ioos:station:TCOON:127:1,2017-10-05T02:30:00Z,28.2598,-96.7737,1.0,6.86,1111122 
TCOON,ioos:station:TCOON:127:1,2017-10-05T03:30:00Z,28.2598,-96.7737,1.0,6.65,1111122 
TCOON,ioos:station:TCOON:127:1,2017-10-05T04:30:00Z,28.2598,-96.7737,1.0,6.55,1111122 
TCOON,ioos:station:TCOON:127:1,2017-10-05T05:30:00Z,28.2598,-96.7737,1.0,6.53,1111122 
TCOON,ioos:station:TCOON:127:1,2017-10-05T06:30:00Z,28.2598,-96.7737,1.0,6.5,1111122 
TCOON,ioos:station:TCOON:127:1,2017-10-05T07:30:00Z,28.2598,-96.7737,1.0,6.48,1111122 
TCOON,ioos:station:TCOON:127:1,2017-10-05T08:30:00Z,28.2598,-96.7737,1.0,6.38,1111122 
TCOON,ioos:station:TCOON:127:1,2017-10-05T09:30:00Z,28.2598,-96.7737,1.0,6.13,1111122 
TCOON,ioos:station:TCOON:127:1,2017-10-05T10:30:00Z,28.2598,-96.7737,1.0,5.71,1111122 
TCOON,ioos:station:TCOON:127:1,2017-10-05T11:30:00Z,28.2598,-96.7737,1.0,5.88,1111122 
TCOON,ioos:station:TCOON:127:1,2017-10-05T12:30:00Z,28.2598,-96.7737,1.0,4.96,1111122 
TCOON,ioos:station:TCOON:127:1,2017-10-05T13:30:00Z,28.2598,-96.7737,1.0,6.12,1111122 
TCOON,ioos:station:TCOON:127:1,2017-10-05T14:30:00Z,28.2598,-96.7737,1.0,5.88,1111122 
TCOON,ioos:station:TCOON:127:1,2017-10-05T15:30:00Z,28.2598,-96.7737,1.0,6.11,1111122 
TCOON,ioos:station:TCOON:127:1,2017-10-05T16:30:00Z,28.2598,-96.7737,1.0,5.99,1111122 
TCOON,ioos:station:TCOON:127:1,2017-10-05T17:30:00Z,28.2598,-96.7737,1.0,6.77,1111122 
TCOON,ioos:station:TCOON:127:1,2017-10-05T18:30:00Z,28.2598,-96.7737,1.0,7.15,1111122 
TCOON,ioos:station:TCOON:127:1,2017-10-05T19:30:00Z,28.2598,-96.7737,1.0,7.0,1111122 
TCOON,ioos:station:TCOON:127:1,2017-10-05T20:30:00Z,28.2598,-96.7737,1.0,7.08,1111122 
TCOON,ioos:station:TCOON:127:1,2017-10-05T21:30:00Z,28.2598,-96.7737,1.0,6.72,1111122 
TCOON,ioos:station:TCOON:127:1,2017-10-05T22:30:00Z,28.2598,-96.7737,1.0,3.88,1111122 
TCOON,ioos:station:TCOON:127:1,2017-10-05T23:30:00Z,28.2598,-96.7737,1.0,5.0,1111122 
TCOON,ioos:station:TCOON:127:1,2017-10-06T00:30:00Z,28.2598,-96.7737,1.0,5.21,1111122 
TCOON,ioos:station:TCOON:127:1,2017-10-06T01:30:00Z,28.2598,-96.7737,1.0,6.02,1111122 
TCOON,ioos:station:TCOON:127:1,2017-10-06T02:30:00Z,28.2598,-96.7737,1.0,6.03,1111122 
TCOON,ioos:station:TCOON:127:1,2017-10-06T03:30:00Z,28.2598,-96.7737,1.0,5.88,1111122 
TCOON,ioos:station:TCOON:127:1,2017-10-06T04:30:00Z,28.2598,-96.7737,1.0,5.89,1111122 
TCOON,ioos:station:TCOON:127:1,2017-10-06T05:30:00Z,28.2598,-96.7737,1.0,5.78,1111122 
TCOON,ioos:station:TCOON:127:1,2017-10-06T06:30:00Z,28.2598,-96.7737,1.0,5.76,1111122 
TCOON,ioos:station:TCOON:127:1,2017-10-06T07:30:00Z,28.2598,-96.7737,1.0,5.78,1111122 
TCOON,ioos:station:TCOON:127:1,2017-10-06T08:30:00Z,28.2598,-96.7737,1.0,5.45,1111122 
TCOON,ioos:station:TCOON:127:1,2017-10-06T09:30:00Z,28.2598,-96.7737,1.0,5.42,1111122 
TCOON,ioos:station:TCOON:127:1,2017-10-06T10:30:00Z,28.2598,-96.7737,1.0,5.17,1111122 
TCOON,ioos:station:TCOON:127:1,2017-10-06T11:30:00Z,28.2598,-96.7737,1.0,4.92,1111122 
TCOON,ioos:station:TCOON:127:1,2017-10-06T12:30:00Z,28.2598,-96.7737,1.0,4.76,1111122 
TCOON,ioos:station:TCOON:127:1,2017-10-06T13:30:00Z,28.2598,-96.7737,1.0,5.2,1111122 
TCOON,ioos:station:TCOON:127:1,2017-10-06T14:30:00Z,28.2598,-96.7737,1.0,4.99,1111122 
TCOON,ioos:station:TCOON:127:1,2017-10-06T16:30:00Z,28.2598,-96.7737,1.0,5.37,1111122 
TCOON,ioos:station:TCOON:127:1,2017-10-06T17:30:00Z,28.2598,-96.7737,1.0,7.84,1111122 
TCOON,ioos:station:TCOON:127:1,2017-10-06T18:30:00Z,28.2598,-96.7737,1.0,8.28,1111122 
TCOON,ioos:station:TCOON:127:1,2017-10-06T19:30:00Z,28.2598,-96.7737,1.0,8.72,1111122 
TCOON,ioos:station:TCOON:127:1,2017-10-06T20:30:00Z,28.2598,-96.7737,1.0,8.85,1111122 
TCOON,ioos:station:TCOON:127:1,2017-10-06T21:30:00Z,28.2598,-96.7737,1.0,8.93,1111122 
TCOON,ioos:station:TCOON:127:1,2017-10-06T22:30:00Z,28.2598,-96.7737,1.0,9.03,1111122 
TCOON,ioos:station:TCOON:127:1,2017-10-06T23:30:00Z,28.2598,-96.7737,1.0,8.96,1111122 
TCOON,ioos:station:TCOON:127:1,2017-10-07T00:30:00Z,28.2598,-96.7737,1.0,8.84,1111122 
TCOON,ioos:station:TCOON:127:1,2017-10-07T01:30:00Z,28.2598,-96.7737,1.0,8.6,1111122 
TCOON,ioos:station:TCOON:127:1,2017-10-07T02:30:00Z,28.2598,-96.7737,1.0,8.42,1111122 
TCOON,ioos:station:TCOON:127:1,2017-10-07T03:30:00Z,28.2598,-96.7737,1.0,8.35,1111122 
TCOON,ioos:station:TCOON:127:1,2017-10-07T04:30:00Z,28.2598,-96.7737,1.0,8.23,1111122 
TCOON,ioos:station:TCOON:127:1,2017-10-07T05:30:00Z,28.2598,-96.7737,1.0,8.09,1111122 
TCOON,ioos:station:TCOON:127:1,2017-10-07T06:30:00Z,28.2598,-96.7737,1.0,8.07,1111122 
TCOON,ioos:station:TCOON:127:1,2017-10-07T07:30:00Z,28.2598,-96.7737,1.0,7.79,1111122 
TCOON,ioos:station:TCOON:127:1,2017-10-07T08:30:00Z,28.2598,-96.7737,1.0,7.98,1111122 
TCOON,ioos:station:TCOON:127:1,2017-10-12T15:30:00Z,28.2598,-96.7737,1.0,7.95,1111122 
TCOON,ioos:station:TCOON:127:1,2017-10-12T16:30:00Z,28.2598,-96.7737,1.0,8.05,1111122 
TCOON,ioos:station:TCOON:127:1,2017-10-12T17:30:00Z,28.2598,-96.7737,1.0,8.27,1111122 
TCOON,ioos:station:TCOON:127:1,2017-10-12T18:30:00Z,28.2598,-96.7737,1.0,8.72,1111122 
TCOON,ioos:station:TCOON:127:1,2017-10-12T19:30:00Z,28.2598,-96.7737,1.0,8.74,1111122 
TCOON,ioos:station:TCOON:127:1,2017-10-12T20:30:00Z,28.2598,-96.7737,1.0,9.21,1111122 
TCOON,ioos:station:TCOON:127:1,2017-10-12T21:30:00Z,28.2598,-96.7737,1.0,9.41,1111122 
TCOON,ioos:station:TCOON:127:1,2017-10-13T14:30:00Z,28.2598,-96.7737,1.0,7.21,1111122 
TCOON,ioos:station:TCOON:127:1,2017-10-13T15:30:00Z,28.2598,-96.7737,1.0,6.08,1111122 
TCOON,ioos:station:TCOON:127:1,2017-10-13T16:30:00Z,28.2598,-96.7737,1.0,6.93,1111122 
TCOON,ioos:station:TCOON:127:1,2017-10-13T17:30:00Z,28.2598,-96.7737,1.0,7.87,1111122 
TCOON,ioos:station:TCOON:127:1,2017-10-13T18:30:00Z,28.2598,-96.7737,1.0,8.15,1111122 
TCOON,ioos:station:TCOON:127:1,2017-10-13T19:30:00Z,28.2598,-96.7737,1.0,10.61,1111122 
TCOON,ioos:station:TCOON:127:1,2017-10-13T20:30:00Z,28.2598,-96.7737,1.0,10.87,1111122 
TCOON,ioos:station:TCOON:127:1,2017-10-13T21:30:00Z,28.2598,-96.7737,1.0,11.16,1111122 
TCOON,ioos:station:TCOON:127:1,2017-10-13T22:30:00Z,28.2598,-96.7737,1.0,11.39,1111122 
TCOON,ioos:station:TCOON:127:1,2017-10-13T23:30:00Z,28.2598,-96.7737,1.0,11.88,1111122 
TCOON,ioos:station:TCOON:127:1,2017-10-14T01:30:00Z,28.2598,-96.7737,1.0,11.55,1111122 
TCOON,ioos:station:TCOON:127:1,2017-10-14T02:30:00Z,28.2598,-96.7737,1.0,11.42,1111122 
TCOON,ioos:station:TCOON:127:1,2017-10-14T03:30:00Z,28.2598,-96.7737,1.0,10.95,1111122 
TCOON,ioos:station:TCOON:127:1,2017-10-14T04:30:00Z,28.2598,-96.7737,1.0,10.45,1111122 
TCOON,ioos:station:TCOON:127:1,2017-10-14T05:30:00Z,28.2598,-96.7737,1.0,10.05,1111122 
TCOON,ioos:station:TCOON:127:1,2017-10-14T06:30:00Z,28.2598,-96.7737,1.0,9.59,1111122 
TCOON,ioos:station:TCOON:127:1,2017-10-14T07:30:00Z,28.2598,-96.7737,1.0,9.7,1111122 
TCOON,ioos:station:TCOON:127:1,2017-10-14T08:30:00Z,28.2598,-96.7737,1.0,9.22,1111122 
TCOON,ioos:station:TCOON:127:1,2017-10-14T09:30:00Z,28.2598,-96.7737,1.0,8.98,1111122 
TCOON,ioos:station:TCOON:127:1,2017-10-14T10:30:00Z,28.2598,-96.7737,1.0,8.76,1111122 
TCOON,ioos:station:TCOON:127:1,2017-10-14T11:30:00Z,28.2598,-96.7737,1.0,8.43,1111122 
TCOON,ioos:station:TCOON:127:1,2017-10-14T12:30:00Z,28.2598,-96.7737,1.0,8.3,1111122 
TCOON,ioos:station:TCOON:127:1,2017-10-14T13:30:00Z,28.2598,-96.7737,1.0,8.1,1111122 
TCOON,ioos:station:TCOON:127:1,2017-10-14T14:30:00Z,28.2598,-96.7737,1.0,8.03,1111122 
TCOON,ioos:station:TCOON:127:1,2017-10-14T15:30:00Z,28.2598,-96.7737,1.0,6.33,1111122 
TCOON,ioos:station:TCOON:127:1,2017-10-14T16:30:00Z,28.2598,-96.7737,1.0,6.86,1111122 
TCOON,ioos:station:TCOON:127:1,2017-10-14T17:30:00Z,28.2598,-96.7737,1.0,8.72,1111122 
TCOON,ioos:station:TCOON:127:1,2017-10-14T18:30:00Z,28.2598,-96.7737,1.0,9.4,1111122 
TCOON,ioos:station:TCOON:127:1,2017-10-14T19:30:00Z,28.2598,-96.7737,1.0,9.78,1111122 
TCOON,ioos:station:TCOON:127:1,2017-10-14T20:30:00Z,28.2598,-96.7737,1.0,9.98,1111122 
TCOON,ioos:station:TCOON:127:1,2017-10-14T21:30:00Z,28.2598,-96.7737,1.0,10.17,1111122 
TCOON,ioos:station:TCOON:127:1,2017-10-14T22:30:00Z,28.2598,-96.7737,1.0,10.21,1111122 
TCOON,ioos:station:TCOON:127:1,2017-10-14T23:30:00Z,28.2598,-96.7737,1.0,10.0,1111122 
TCOON,ioos:station:TCOON:127:1,2017-10-15T00:30:00Z,28.2598,-96.7737,1.0,9.76,1111122 
TCOON,ioos:station:TCOON:127:1,2017-10-15T01:30:00Z,28.2598,-96.7737,1.0,9.62,1111122 
TCOON,ioos:station:TCOON:127:1,2017-10-15T02:30:00Z,28.2598,-96.7737,1.0,9.36,1111122 
TCOON,ioos:station:TCOON:127:1,2017-10-15T03:30:00Z,28.2598,-96.7737,1.0,9.22,1111122 
TCOON,ioos:station:TCOON:127:1,2017-10-15T04:30:00Z,28.2598,-96.7737,1.0,9.03,1111122 
TCOON,ioos:station:TCOON:127:1,2017-10-15T05:30:00Z,28.2598,-96.7737,1.0,8.83,1111122 
TCOON,ioos:station:TCOON:127:1,2017-10-15T06:30:00Z,28.2598,-96.7737,1.0,8.68,1111122 
TCOON,ioos:station:TCOON:127:1,2017-10-15T07:30:00Z,28.2598,-96.7737,1.0,8.37,1111122 
TCOON,ioos:station:TCOON:127:1,2017-10-15T08:30:00Z,28.2598,-96.7737,1.0,8.18,1111122 
TCOON,ioos:station:TCOON:127:1,2017-10-15T09:30:00Z,28.2598,-96.7737,1.0,7.98,1111122 
TCOON,ioos:station:TCOON:127:1,2017-10-15T10:30:00Z,28.2598,-96.7737,1.0,7.9,1111122 
TCOON,ioos:station:TCOON:127:1,2017-10-15T11:30:00Z,28.2598,-96.7737,1.0,7.89,1111122 
TCOON,ioos:station:TCOON:127:1,2017-10-15T12:30:00Z,28.2598,-96.7737,1.0,7.91,1111122 
TCOON,ioos:station:TCOON:127:1,2017-10-15T13:30:00Z,28.2598,-96.7737,1.0,7.86,1111122 
TCOON,ioos:station:TCOON:127:1,2017-10-15T14:30:00Z,28.2598,-96.7737,1.0,7.8,1111122 
TCOON,ioos:station:TCOON:127:1,2017-10-15T15:30:00Z,28.2598,-96.7737,1.0,7.78,1111122 
TCOON,ioos:station:TCOON:127:1,2017-10-15T16:30:00Z,28.2598,-96.7737,1.0,8.03,1111122 
TCOON,ioos:station:TCOON:127:1,2017-10-15T17:30:00Z,28.2598,-96.7737,1.0,8.14,1111122 
TCOON,ioos:station:TCOON:127:1,2017-10-15T18:30:00Z,28.2598,-96.7737,1.0,8.48,1111122 
TCOON,ioos:station:TCOON:127:1,2017-10-15T19:30:00Z,28.2598,-96.7737,1.0,8.56,1111122 
TCOON,ioos:station:TCOON:127:1,2017-10-15T20:30:00Z,28.2598,-96.7737,1.0,8.57,1111122 
TCOON,ioos:station:TCOON:127:1,2017-10-15T21:30:00Z,28.2598,-96.7737,1.0,8.61,1111122 
TCOON,ioos:station:TCOON:127:1,2017-10-15T22:30:00Z,28.2598,-96.7737,1.0,8.25,1111122 
TCOON,ioos:station:TCOON:127:1,2017-10-15T23:30:00Z,28.2598,-96.7737,1.0,8.26,1111122 
TCOON,ioos:station:TCOON:127:1,2017-10-16T00:30:00Z,28.2598,-96.7737,1.0,8.03,1111122 
TCOON,ioos:station:TCOON:127:1,2017-10-16T01:30:00Z,28.2598,-96.7737,1.0,7.83,1111122 
TCOON,ioos:station:TCOON:127:1,2017-10-16T02:30:00Z,28.2598,-96.7737,1.0,7.64,1111122 
TCOON,ioos:station:TCOON:127:1,2017-10-16T03:30:00Z,28.2598,-96.7737,1.0,7.48,1111122 
TCOON,ioos:station:TCOON:127:1,2017-10-16T05:30:00Z,28.2598,-96.7737,1.0,7.45,1111122 
TCOON,ioos:station:TCOON:127:1,2017-10-16T06:30:00Z,28.2598,-96.7737,1.0,7.2,1111122 
TCOON,ioos:station:TCOON:127:1,2017-10-16T07:30:00Z,28.2598,-96.7737,1.0,7.12,1111122 
TCOON,ioos:station:TCOON:127:1,2017-10-16T08:30:00Z,28.2598,-96.7737,1.0,7.1,1111122 
TCOON,ioos:station:TCOON:127:1,2017-10-16T09:30:00Z,28.2598,-96.7737,1.0,7.07,1111122 
TCOON,ioos:station:TCOON:127:1,2017-10-16T10:30:00Z,28.2598,-96.7737,1.0,7.01,1111122 
TCOON,ioos:station:TCOON:127:1,2017-10-16T11:30:00Z,28.2598,-96.7737,1.0,7.04,1111122 
TCOON,ioos:station:TCOON:127:1,2017-10-16T12:30:00Z,28.2598,-96.7737,1.0,7.06,1111122 
TCOON,ioos:station:TCOON:127:1,2017-10-16T13:30:00Z,28.2598,-96.7737,1.0,7.09,1111122 
TCOON,ioos:station:TCOON:127:1,2017-10-16T14:30:00Z,28.2598,-96.7737,1.0,7.15,1111122 
TCOON,ioos:station:TCOON:127:1,2017-10-16T15:30:00Z,28.2598,-96.7737,1.0,7.21,1111122 
TCOON,ioos:station:TCOON:127:1,2017-10-16T16:30:00Z,28.2598,-96.7737,1.0,7.31,1111122 
TCOON,ioos:station:TCOON:127:1,2017-10-16T17:30:00Z,28.2598,-96.7737,1.0,7.29,1111122 
TCOON,ioos:station:TCOON:127:1,2017-10-16T18:30:00Z,28.2598,-96.7737,1.0,7.59,1111122 
TCOON,ioos:station:TCOON:127:1,2017-10-16T19:30:00Z,28.2598,-96.7737,1.0,7.64,1111122 
TCOON,ioos:station:TCOON:127:1,2017-10-16T20:30:00Z,28.2598,-96.7737,1.0,7.67,1111122 
TCOON,ioos:station:TCOON:127:1,2017-10-16T21:30:00Z,28.2598,-96.7737,1.0,7.64,1111122 
TCOON,ioos:station:TCOON:127:1,2017-10-16T22:30:00Z,28.2598,-96.7737,1.0,7.74,1111122 
TCOON,ioos:station:TCOON:127:1,2017-10-16T23:30:00Z,28.2598,-96.7737,1.0,7.68,1111122 
TCOON,ioos:station:TCOON:127:1,2017-10-17T00:30:00Z,28.2598,-96.7737,1.0,7.69,1111122 
TCOON,ioos:station:TCOON:127:1,2017-10-17T01:30:00Z,28.2598,-96.7737,1.0,7.74,1111122 
TCOON,ioos:station:TCOON:127:1,2017-10-17T02:30:00Z,28.2598,-96.7737,1.0,7.66,1111122 
TCOON,ioos:station:TCOON:127:1,2017-10-17T03:30:00Z,28.2598,-96.7737,1.0,7.55,1111122 
TCOON,ioos:station:TCOON:127:1,2017-10-17T04:30:00Z,28.2598,-96.7737,1.0,7.5,1111122 
TCOON,ioos:station:TCOON:127:1,2017-10-17T06:30:00Z,28.2598,-96.7737,1.0,7.42,1111122 
TCOON,ioos:station:TCOON:127:1,2017-10-17T07:30:00Z,28.2598,-96.7737,1.0,7.4,1111122 
TCOON,ioos:station:TCOON:127:1,2017-10-17T10:30:00Z,28.2598,-96.7737,1.0,7.22,1111122 
TCOON,ioos:station:TCOON:127:1,2017-10-17T11:30:00Z,28.2598,-96.7737,1.0,7.26,1111122 
TCOON,ioos:station:TCOON:127:1,2017-10-17T12:30:00Z,28.2598,-96.7737,1.0,7.23,1111122 
TCOON,ioos:station:TCOON:127:1,2017-10-17T13:30:00Z,28.2598,-96.7737,1.0,7.13,1111122 
TCOON,ioos:station:TCOON:127:1,2017-10-17T14:30:00Z,28.2598,-96.7737,1.0,7.27,1111122 
TCOON,ioos:station:TCOON:127:1,2017-10-17T15:30:00Z,28.2598,-96.7737,1.0,7.42,1111122 
TCOON,ioos:station:TCOON:127:1,2017-10-17T16:30:00Z,28.2598,-96.7737,1.0,7.58,1111122 
TCOON,ioos:station:TCOON:127:1,2017-10-17T17:30:00Z,28.2598,-96.7737,1.0,7.82,1111122 
TCOON,ioos:station:TCOON:127:1,2017-10-17T18:30:00Z,28.2598,-96.7737,1.0,8.02,1111122 
TCOON,ioos:station:TCOON:127:1,2017-10-17T19:30:00Z,28.2598,-96.7737,1.0,8.18,1111122 
TCOON,ioos:station:TCOON:127:1,2017-10-17T20:30:00Z,28.2598,-96.7737,1.0,8.42,1111122 
TCOON,ioos:station:TCOON:127:1,2017-10-17T21:30:00Z,28.2598,-96.7737,1.0,8.33,1111122 
TCOON,ioos:station:TCOON:127:1,2017-10-17T22:30:00Z,28.2598,-96.7737,1.0,7.44,1111122 
TCOON,ioos:station:TCOON:127:1,2017-10-17T23:30:00Z,28.2598,-96.7737,1.0,7.47,1111122 
TCOON,ioos:station:TCOON:127:1,2017-10-18T00:30:00Z,28.2598,-96.7737,1.0,7.44,1111122 
TCOON,ioos:station:TCOON:127:1,2017-10-18T01:30:00Z,28.2598,-96.7737,1.0,7.44,1111122 
TCOON,ioos:station:TCOON:127:1,2017-10-18T02:30:00Z,28.2598,-96.7737,1.0,7.37,1111122 
TCOON,ioos:station:TCOON:127:1,2017-10-18T03:30:00Z,28.2598,-96.7737,1.0,7.33,1111122 
TCOON,ioos:station:TCOON:127:1,2017-10-18T04:30:00Z,28.2598,-96.7737,1.0,7.58,1111122 
TCOON,ioos:station:TCOON:127:1,2017-10-18T17:30:00Z,28.2598,-96.7737,1.0,9.11,1111122 
TCOON,ioos:station:TCOON:127:1,2017-10-18T18:30:00Z,28.2598,-96.7737,1.0,9.27,1111122 
TCOON,ioos:station:TCOON:127:1,2017-10-18T19:30:00Z,28.2598,-96.7737,1.0,9.36,1111122 
TCOON,ioos:station:TCOON:127:1,2017-10-18T20:30:00Z,28.2598,-96.7737,1.0,9.4,1111122 
TCOON,ioos:station:TCOON:127:1,2017-10-18T21:30:00Z,28.2598,-96.7737,1.0,9.73,1111122 
TCOON,ioos:station:TCOON:127:1,2017-10-18T22:30:00Z,28.2598,-96.7737,1.0,9.62,1111122 
TCOON,ioos:station:TCOON:127:1,2017-10-18T23:30:00Z,28.2598,-96.7737,1.0,9.74,1111122 
TCOON,ioos:station:TCOON:127:1,2017-10-19T00:30:00Z,28.2598,-96.7737,1.0,9.63,1111122 
TCOON,ioos:station:TCOON:127:1,2017-10-19T01:30:00Z,28.2598,-96.7737,1.0,9.54,1111122 
TCOON,ioos:station:TCOON:127:1,2017-10-19T02:30:00Z,28.2598,-96.7737,1.0,9.46,1111122 
TCOON,ioos:station:TCOON:127:1,2017-10-19T03:30:00Z,28.2598,-96.7737,1.0,9.39,1111122 
TCOON,ioos:station:TCOON:127:1,2017-10-19T04:30:00Z,28.2598,-96.7737,1.0,9.18,1111122 
TCOON,ioos:station:TCOON:127:1,2017-10-19T05:30:00Z,28.2598,-96.7737,1.0,9.03,1111122 